American Falls Reservoir Weather Center

Moon Phase Calendar



American Falls Reservoir Water Level
Online Cameras

 


      

Current Conditions in Aberdeen
10/1/2022 9:31:36 PM

49°F
Feels Like 46
Clear
Humidity
71%
Pressure
30.09"
Wind
6.9 mph (E)
Dew Point
40°F
UV Index
0/10 (Low)
Visibility
6 mi

Hourly Forecast

Date & Time Sat, Oct 1
9:00 PM
Sat, Oct 1
10:00 PM
Sat, Oct 1
11:00 PM
Sun, Oct 2
12:00 AM
Sun, Oct 2
1:00 AM
Sun, Oct 2
2:00 AM
Sun, Oct 2
3:00 AM
Sun, Oct 2
4:00 AM
Sun, Oct 2
5:00 AM
Sun, Oct 2
6:00 AM
Sun, Oct 2
7:00 AM
Sun, Oct 2
8:00 AM
Sun, Oct 2
9:00 AM
Sun, Oct 2
10:00 AM
Sun, Oct 2
11:00 AM
Sun, Oct 2
12:00 PM
Sun, Oct 2
1:00 PM
Sun, Oct 2
2:00 PM
Sun, Oct 2
3:00 PM
Sun, Oct 2
4:00 PM
Sun, Oct 2
5:00 PM
Sun, Oct 2
6:00 PM
Sun, Oct 2
7:00 PM
Sun, Oct 2
8:00 PM
Sun, Oct 2
9:00 PM
Sun, Oct 2
10:00 PM
Sun, Oct 2
11:00 PM
Mon, Oct 3
12:00 AM
Mon, Oct 3
1:00 AM
Mon, Oct 3
2:00 AM
Mon, Oct 3
3:00 AM
Mon, Oct 3
4:00 AM
Mon, Oct 3
5:00 AM
Mon, Oct 3
6:00 AM
Mon, Oct 3
7:00 AM
Mon, Oct 3
8:00 AM
Mon, Oct 3
9:00 AM
Mon, Oct 3
10:00 AM
Mon, Oct 3
11:00 AM
Mon, Oct 3
12:00 PM
Mon, Oct 3
1:00 PM
Mon, Oct 3
2:00 PM
Mon, Oct 3
3:00 PM
Mon, Oct 3
4:00 PM
Mon, Oct 3
5:00 PM
Mon, Oct 3
6:00 PM
Mon, Oct 3
7:00 PM
Mon, Oct 3
8:00 PM
Condition
Clouds

Clear

Clouds

Clouds

Clouds

Clouds

Clouds

Clouds

Clouds

Clouds

Clouds

Clouds

Clouds

Clouds

Clouds

Clouds

Clouds

Clouds

Clouds

Clouds

Clouds

Clouds

Clouds

Clouds

Clouds

Clouds

Clouds

Clouds

Clear

Clear

Clear

Clear

Clear

Clear

Clear

Clear

Clear

Clear

Clear

Clear

Clear

Clear

Clear

Clear

Clear

Clear

Clear

Clear
Temperature 49°F49°F49°F49°F49°F49°F49°F48°F47°F46°F45°F46°F51°F55°F59°F62°F65°F67°F69°F69°F69°F69°F63°F59°F57°F56°F55°F55°F53°F52°F51°F50°F50°F49°F48°F49°F54°F58°F62°F65°F68°F69°F70°F71°F71°F70°F63°F60°F
Feels Like 48°F47°F49°F49°F49°F49°F48°F47°F44°F45°F45°F45°F49°F53°F57°F60°F63°F65°F66°F67°F67°F66°F60°F56°F54°F53°F53°F52°F51°F49°F48°F48°F50°F49°F48°F49°F51°F55°F59°F63°F65°F67°F68°F69°F69°F67°F61°F58°F
Cloudiness 17%0%15%32%60%80%100%100%100%92%15%15%16%36%48%56%100%96%87%86%89%91%100%96%77%59%49%42%5%5%5%6%6%6%6%6%6%6%7%6%3%3%2%1%1%1%0%1%
Visibility 6 mi6 mi6 mi6 mi6 mi6 mi6 mi6 mi6 mi6 mi6 mi6 mi6 mi6 mi6 mi6 mi6 mi6 mi6 mi6 mi6 mi6 mi6 mi6 mi6 mi6 mi6 mi6 mi6 mi6 mi6 mi6 mi6 mi6 mi6 mi6 mi6 mi6 mi6 mi6 mi6 mi6 mi6 mi6 mi6 mi6 mi6 mi6 mi
Precipitation 0%0%0%0%0%0%0%0%0%0%0%0%0%0%0%0%0%0%0%0%0%0%0%0%0%0%0%0%0%0%0%0%0%0%0%0%0%0%0%0%0%0%0%0%0%0%0%0%
Humidity 68%71%69%68%66%66%66%69%72%74%76%74%61%52%44%37%32%29%27%25%25%26%31%36%39%41%41%42%45%48%50%51%51%53%55%54%45%39%34%30%28%26%25%24%24%25%32%35%
Dew Point 39°F40°F39°F39°F38°F38°F38°F37°F38°F37°F37°F37°F37°F37°F36°F35°F34°F33°F33°F32°F31°F32°F31°F32°F32°F32°F32°F32°F32°F32°F32°F32°F32°F32°F32°F32°F32°F32°F32°F33°F33°F32°F32°F32°F32°F32°F32°F32°F
Pressure 30.09"30.09"30.09"30.06"30.06"30.03"30.03"30.03"30.03"30.06"30.06"30.09"30.09"30.06"30.03"30.03"30"29.97"29.94"29.94"29.91"29.91"29.94"29.97"30"30"30.03"30.03"30.06"30.06"30.09"30.09"30.09"30.12"30.15"30.15"30.15"30.15"30.12"30.09"30.09"30.06"30.03"30"30"30"30.03"30.03"
Wind Speed 4 mph4.3 mph2.9 mph1.7 mph2.6 mph3.1 mph3.4 mph3.2 mph5.2 mph3.7 mph2.6 mph3.1 mph2.7 mph3.7 mph2.2 mph2.4 mph3.8 mph5.3 mph6.4 mph5.5 mph5 mph4.8 mph2.8 mph3.7 mph2.7 mph3.4 mph5.6 mph3.8 mph0.6 mph2.6 mph1.4 mph0.8 mph0.4 mph1.6 mph2.1 mph1.8 mph2.1 mph2.8 mph3 mph3.7 mph3.8 mph3.8 mph4.7 mph5.5 mph5.4 mph4.1 mph3.5 mph3.4 mph
Wind
Direction
148°
SSE
148°
SSE
141°
SE
106°
ESE
94°
E
87°
E
102°
ESE
70°
ENE
63°
ENE
91°
E
87°
E
61°
ENE
74°
ENE
72°
ENE
75°
ENE

N
336°
NNW
318°
NW
309°
NW
302°
WNW
296°
WNW
307°
NW
15°
NNE
64°
ENE
92°
E
145°
SE
165°
SSE
184°
S
128°
SE
86°
E
113°
ESE
190°
S
131°
SE
61°
ENE
48°
NE
48°
NE
44°
NE
19°
NNE

N
347°
NNW
338°
NNW
330°
NNW
331°
NNW
337°
NNW
344°
NNW

N
54°
NE
103°
ESE

Daily Forecast

Date High Low Precip. Humidity
Today
Oct 1

Rain
60 °F
49 °F
28%
57%
Sunday
Oct 2

Clouds
69 °F
45 °F
0%
32%
Monday
Oct 3

Clear
70 °F
48 °F
0%
30%
Tuesday
Oct 4

Clouds
74 °F
52 °F
0%
25%
Wednesday
Oct 5

Clear
76 °F
52 °F
0%
20%
Thursday
Oct 6

Clear
78 °F
54 °F
0%
19%
Friday
Oct 7

Clouds
78 °F
56 °F
0%
18%
Saturday
Oct 8

Rain
78 °F
55 °F
28%
22%
Sunday
Oct 9

Clouds
78 °F
53 °F
0%
19%
Monday
Oct 10

Clouds
80 °F
57 °F
0%
22%
Tuesday
Oct 11

Clouds
80 °F
58 °F
0%
23%
Wednesday
Oct 12

Rain
77 °F
58 °F
35%
29%
Thursday
Oct 13

Rain
54 °F
48 °F
100%
74%
Friday
Oct 14

Rain
61 °F
47 °F
68%
44%
Saturday
Oct 15

Clouds
59 °F
45 °F
0%
39%
Sunday
Oct 16

Clouds
57 °F
39 °F
0%
36%

Temperature 8-14 Day Outlook



Precipitation 8-14 Day Outlook




Quick Links
American Falls Reservoir News
American Falls Reservoir Photos
American Falls Reservoir Videos




About Us
Contact Us
Site Map
Search Site
Advertise With Us
   
AmericanFalls.USLakes.info
THE AMERICAN FALLS RESERVOIR WEBSITE

Copyright 2022, Lakes Online
Privacy    |    Legal